Temp
19 19 19 19 19 19 19 19 19 19 19 19 19 19 19 19 18 18 18 18 18 18
19 19 19 19 19 19 19 19 19 19 19 19 19 19 19 19 18 18 18 18 18 18
19 19 19 19 19 19 19 20 20 20 20 20 19 19 19 19 18 18 18 18 18 18
20 19 19 19 19 19 19 19 19 19 19 19 19 19 19 19 19 18 18 18 19 19
20 20 19 19 19 19 19 19 19 19 19 19 19 19 19 19 18 18 18 18 19 19
21 20 20 20 19 19 19 19 19 19 19 19 19 19 19 18 18 18 18 18 18 18
21 21 21 20 20 19 19 19 19 18 18 19 19 19 19 19 19 18 18 19 18 18
21 21 21 21 20 19 19 19 19 19 18 18 18 18 19 18 18 18 18 18 18 18
19 20 20 20 20 20 19 19 18 18 18 18 18 18 18 18 18 18 18 18 18 18
19 19 19 20 20 20 20 19 19 18 18 18 18 18 18 18 18 18 18 18 18 18
19 19 18 19 19 19 19 19 19 18 18 18 18 18 18 18 18 18 18 18 18 17
17 18 17 17 17 18 19 19 19 19 18 18 18 18 18 18 19 18 18 18 18 17
16 16 16 16 16 16 17 18 18 18 18 18 18 18 18 18 18 18 17 16 16 15
16 15 15 15 15 16 16 16 18 17 18 18 17 16 16 16 17 15 15 15 15 14
Height
1567 1569 1572 1575 1577 1579 1580 1582 1583 1585 1586 1587 1588 1588 1588 1588 1588 1588 1587 1587 1587 1587
1564 1567 1569 1571 1574 1576 1578 1580 1581 1583 1584 1585 1586 1586 1586 1586 1586 1585 1585 1585 1585 1584
1561 1564 1566 1569 1571 1573 1576 1578 1579 1581 1582 1583 1583 1583 1583 1584 1583 1583 1583 1582 1582 1581
1557 1560 1563 1565 1568 1570 1572 1575 1576 1578 1579 1580 1580 1580 1580 1581 1580 1581 1581 1580 1579 1578
1552 1555 1558 1560 1563 1566 1568 1570 1572 1574 1575 1576 1577 1578 1578 1578 1578 1578 1577 1578 1577 1576
1546 1549 1552 1555 1558 1561 1563 1566 1568 1570 1571 1572 1572 1573 1574 1574 1574 1575 1574 1574 1574 1574
1538 1542 1546 1549 1552 1555 1558 1561 1563 1565 1566 1567 1568 1569 1570 1570 1571 1572 1571 1571 1571 1571
1532 1536 1540 1543 1547 1550 1552 1554 1557 1559 1561 1563 1565 1566 1567 1567 1568 1568 1569 1568 1568 1568
1525 1529 1533 1537 1540 1543 1546 1548 1550 1553 1556 1558 1560 1562 1563 1563 1564 1564 1564 1564 1564 1564
1520 1523 1526 1529 1533 1536 1539 1541 1543 1546 1549 1551 1554 1556 1558 1559 1560 1561 1561 1560 1560 1559
1514 1516 1519 1522 1525 1528 1532 1535 1537 1540 1543 1544 1547 1550 1552 1553 1555 1556 1556 1556 1556 1556
1511 1512 1513 1516 1519 1522 1524 1528 1531 1534 1537 1539 1542 1545 1547 1548 1549 1550 1551 1551 1551 1550
1506 1507 1509 1511 1514 1516 1518 1521 1523 1527 1530 1534 1537 1540 1541 1543 1545 1546 1546 1546 1546 1546
1497 1501 1503 1504 1507 1509 1510 1512 1515 1520 1525 1529 1532 1534 1537 1539 1541 1543 1543 1543 1542 1543
Wind_Speed
19 17 15 14 14 13 12 10 10 10 9 8 8 6 6 7 7 7 6 6 6 6
21 19 18 14 14 14 13 13 11 11 10 11 11 10 10 9 9 9 9 8 9 8
25 23 20 20 19 17 15 13 13 13 12 12 13 13 13 11 10 9 10 9 9 9
28 26 23 23 21 19 18 17 17 15 15 13 12 13 13 13 13 11 11 9 9 9
26 26 26 24 23 21 21 19 19 17 15 14 14 14 13 14 12 12 11 9 9 8
30 27 26 26 24 25 23 21 19 20 18 16 16 15 14 13 12 11 11 11 11 10
32 29 25 23 23 23 25 24 23 22 20 19 18 17 16 15 14 13 13 12 12 12
28 31 29 25 23 21 22 24 26 26 24 21 20 18 16 15 16 16 15 13 12 12
24 27 29 28 25 24 22 22 24 25 27 26 23 21 18 18 18 16 15 14 15 16
24 25 27 27 27 25 23 21 22 23 24 24 24 23 20 20 21 17 18 17 16 17
21 25 25 27 26 25 23 20 20 20 20 23 24 23 23 23 21 21 22 21 19 18
16 18 21 21 23 24 22 19 19 21 21 21 23 24 26 29 23 23 22 22 21 17
17 21 26 24 28 32 27 20 13 15 19 23 24 27 25 24 16 16 17 15 13 13
12 20 21 22 26 25 29 34 25 17 16 21 24 21 9 8 10 11 11 12 9 8
Wind_Direction
232 237 231 236 235 240 239 240 231 234 240 239 250 265 291 282 283 291 290 287 286 303
235 238 236 244 241 239 235 243 234 231 241 256 257 262 271 284 286 289 293 285 286 288
240 242 246 243 243 241 243 243 242 244 249 262 265 268 265 272 285 293 301 288 285 289
239 240 244 243 242 242 242 251 249 247 253 261 265 261 260 283 280 287 290 287 291 297
243 243 244 247 247 245 246 251 245 247 251 258 263 267 274 278 275 281 282 278 290 299
243 241 243 246 249 247 246 248 246 244 253 261 262 273 274 275 276 282 273 275 282 290
242 242 245 247 247 248 246 249 250 250 256 260 263 266 269 269 271 277 280 278 279 282
244 243 244 247 249 251 254 253 254 256 255 258 263 262 268 261 261 267 270 274 280 283
250 244 243 246 246 247 252 258 255 253 256 259 261 260 263 262 265 266 265 267 275 281
248 247 243 244 243 244 250 256 248 250 257 256 256 258 258 257 264 268 266 270 276 279
257 248 246 242 240 237 241 246 245 250 253 253 255 256 254 258 260 261 263 265 273 276
265 264 255 244 233 227 230 235 242 249 256 258 256 254 259 262 263 259 259 269 271 268
251 253 246 236 238 239 233 234 241 253 253 255 254 258 259 265 261 277 276 269 260 267
261 252 250 245 242 246 245 236 244 264 273 262 255 261 235 264 279 275 269 265 254 267